"Pseudo-MPEC" for ZTF10FE

Created 2026 Aug 12 10:35:32 UT using Find_Orb

Click here for an explanation of pseudo-MPECs

 
 Astrometry: 
     ZTF10FE*0C2026 08 07.28898021 31 44.565-04 55 55.13   ~879Z 17.35RUNEOCPI41
     ZTF10FE 0C2026 08 07.28932821 31 47.679-04 56 04.80   ~879Z 17.35RUNEOCPI41
     ZTF10FE 0C2026 08 07.30693821 34 27.032-05 03 27.41   ~879Z 17.02iUNEOCPI41
     ZTF10FE 0C2026 08 07.30728621 34 30.088-05 03 35.79   ~879Z 17.02iUNEOCPI41

Station data:
(I41) Palomar Mountain--ZTF  (N33.357336 W116.859780)  US/California.
   Observers B. T. Bolin, Z. T. F. Collaboration. Measurers B. T. Bolin,
   Z.-Y. Lin, F. J. Masci. 1.2-m f/2.4 Schmidt.

Orbital elements:  ZTF10FE
   Perigee 2026 Aug 6.655054 +/- 35.4 TT = 15:43:16.6 (JD 2461259.155054)
Epoch 2026 Aug  7.0 TT = JDT 2461259.5                           AutoNEOCP
q428767.3752 +/- 1.85e+7            (J2000 equator)
H   28.11 G 0.15                    Peri.  147.013060 +/- 56
                                    Node   118.769989 +/- 52
e 159.03879921 +/- 0.251            Incl.   11.287260 +/- 3.6
From 4 observations 2026 Aug. 7 (26.4 min); mean residual 0".43
Residuals in arcseconds: 
260807 I41  .74+  .35+    260807 I41  .21+  .08-    
260807 I41  .75-  .36-    260807 I41  .20-  .08+    

Ephemerides (geocentric):
Date (UTC) HH   RA             Dec           delta  r     elong  mag " sig PA
---- --------  ------------   ------------  ------ ------ -----  --- --------
2026 08 12 11  23 25 36.008   -09 05 05.70  .04086 1.0491 150.5 22.5  66d  93
2026 08 12 12  23 25 42.496   -09 05 19.96  .04115 1.0493 150.5 22.5  66d  93
2026 08 12 13  23 25 48.883   -09 05 34.05  .04144 1.0496 150.5 22.6  66d  93
2026 08 12 14  23 25 55.172   -09 05 47.97  .04173 1.0499 150.5 22.6  66d  93
2026 08 12 15  23 26 01.366   -09 06 01.71  .04203 1.0501 150.6 22.6  66d  93
2026 08 12 16  23 26 07.465   -09 06 15.30  .04232 1.0504 150.6 22.6  66d  93
2026 08 12 17  23 26 13.472   -09 06 28.72  .04261 1.0506 150.6 22.6  66d  93
2026 08 12 18  23 26 19.389   -09 06 41.98  .04291 1.0509 150.6 22.6  66d  93
2026 08 12 19  23 26 25.217   -09 06 55.09  .04320 1.0511 150.6 22.6  66d  93
2026 08 12 20  23 26 30.958   -09 07 08.05  .04349 1.0514 150.6 22.7  66d  93
2026 08 12 21  23 26 36.614   -09 07 20.87  .04379 1.0517 150.7 22.7  66d  93
2026 08 12 22  23 26 42.186   -09 07 33.53  .04408 1.0519 150.7 22.7  66d  93
2026 08 12 23  23 26 47.677   -09 07 46.06  .04437 1.0522 150.7 22.7  66d  93
2026 08 13 00  23 26 53.087   -09 07 58.45  .04467 1.0524 150.7 22.7  66d  93
2026 08 13 01  23 26 58.419   -09 08 10.70  .04496 1.0527 150.7 22.7  66d  93
2026 08 13 02  23 27 03.673   -09 08 22.82  .04525 1.0529 150.8 22.7  66d  93
2026 08 13 03  23 27 08.851   -09 08 34.81  .04555 1.0532 150.8 22.8  66d  93
2026 08 13 04  23 27 13.955   -09 08 46.67  .04584 1.0535 150.8 22.8  66d  93
2026 08 13 05  23 27 18.985   -09 08 58.41  .04613 1.0537 150.8 22.8  66d  93
2026 08 13 06  23 27 23.944   -09 09 10.03  .04643 1.0540 150.8 22.8  65d  93
2026 08 13 07  23 27 28.833   -09 09 21.52  .04672 1.0542 150.9 22.8  65d  93
2026 08 13 08  23 27 33.652   -09 09 32.90  .04701 1.0545 150.9 22.8  65d  93
2026 08 13 09  23 27 38.403   -09 09 44.16  .04731 1.0548 150.9 22.8  65d  93
2026 08 13 10  23 27 43.088   -09 09 55.31  .04760 1.0550 150.9 22.9  65d  93
2026 08 13 11  23 27 47.707   -09 10 06.34  .04789 1.0553 150.9 22.9  65d  93
2026 08 13 12  23 27 52.262   -09 10 17.27  .04819 1.0555 151.0 22.9  65d  93
2026 08 13 13  23 27 56.753   -09 10 28.09  .04848 1.0558 151.0 22.9  65d  93
2026 08 13 14  23 28 01.182   -09 10 38.81  .04878 1.0561 151.0 22.9  66d  93
2026 08 13 15  23 28 05.550   -09 10 49.42  .04907 1.0563 151.0 22.9  69d  92
2026 08 13 16  23 28 09.859   -09 10 59.94  .04936 1.0566 151.0 22.9  69d  92
2026 08 13 17  23 28 14.108   -09 11 10.35  .04966 1.0569 151.1 22.9  68d  92
2026 08 13 18  23 28 18.299   -09 11 20.67  .04995 1.0571 151.1 23.0  68d  92
2026 08 13 19  23 28 22.433   -09 11 30.89  .05025 1.0574 151.1 23.0  68d  92
2026 08 13 20  23 28 26.511   -09 11 41.02  .05054 1.0576 151.1 23.0  68d  92
2026 08 13 21  23 28 30.534   -09 11 51.05  .05083 1.0579 151.2 23.0  67d  92
2026 08 13 22  23 28 34.503   -09 12 01.00  .05113 1.0582 151.2 23.0  67d  92
2026 08 13 23  23 28 38.418   -09 12 10.85  .05142 1.0584 151.2 23.0  67d  92
2026 08 14 00  23 28 42.281   -09 12 20.62  .05172 1.0587 151.2 23.0  67d  92
2026 08 14 01  23 28 46.092   -09 12 30.30  .05201 1.0590 151.3 23.0  67d  92
2026 08 14 02  23 28 49.853   -09 12 39.90  .05230 1.0592 151.3 23.1  67d  92
2026 08 14 03  23 28 53.563   -09 12 49.42  .05260 1.0595 151.3 23.1  67d  93
2026 08 14 04  23 28 57.225   -09 12 58.86  .05289 1.0598 151.3 23.1  67d  93
2026 08 14 05  23 29 00.838   -09 13 08.21  .05319 1.0600 151.4 23.1  67d  93
2026 08 14 06  23 29 04.403   -09 13 17.49  .05348 1.0603 151.4 23.1  67d  93
2026 08 14 07  23 29 07.922   -09 13 26.69  .05378 1.0606 151.4 23.1  67d  93
2026 08 14 08  23 29 11.394   -09 13 35.81  .05407 1.0608 151.4 23.1  67d  93
2026 08 14 09  23 29 14.821   -09 13 44.86  .05437 1.0611 151.5 23.1  67d  93
2026 08 14 10  23 29 18.204   -09 13 53.83  .05466 1.0614 151.5 23.1  67d  93